This is the latest recevied weather packets stored in our database for station/object DG1ROH. If no packets are shown the sender has not sent any weather packets the latest 10 day(s).
| Time | Temp. | Humidity | Pressure | Rain* | Wind** | Luminosity | Snow |
|---|---|---|---|---|---|---|---|
| 1778335025 | 16.11° C | 60% | 1019.5 hPa | 0 mm | - | 186 W/m² | - |
| 1778334905 | 16.11° C | 60% | 1019.5 hPa | 0 mm | - | 190 W/m² | - |
| 1778334784 | 16.11° C | 65% | 1019.4 hPa | 0 mm | - | 190 W/m² | - |
| 1778334664 | 16.11° C | 62% | 1019.5 hPa | 0 mm | - | 183 W/m² | - |
| 1778334544 | 16.11° C | 62% | 1019.5 hPa | 0 mm | - | 163 W/m² | - |
| 1778334425 | 15.56° C | 59% | 1019.5 hPa | 0 mm | - | 155 W/m² | - |
| 1778334305 | 16.11° C | 59% | 1019.5 hPa | 0 mm | - | 149 W/m² | - |
| 1778334184 | 16.11° C | 56% | 1019.4 hPa | 0 mm | - | 165 W/m² | - |
| 1778334065 | 16.11° C | 57% | 1019.5 hPa | 0 mm | - | 174 W/m² | - |
| 1778333945 | 16.11° C | 59% | 1019.4 hPa | 0 mm | - | 193 W/m² | - |
| 1778333825 | 16.11° C | 60% | 1019.5 hPa | 0 mm | - | 214 W/m² | - |
| 1778333705 | 16.67° C | 59% | 1019.4 hPa | 0 mm | - | 232 W/m² | - |
| 1778333584 | 16.67° C | 59% | 1019.5 hPa | 0 mm | - | 253 W/m² | - |
| 1778333465 | 16.67° C | 59% | 1019.6 hPa | 0 mm | - | 287 W/m² | - |
| 1778333345 | 16.11° C | 60% | 1019.6 hPa | 0 mm | - | 338 W/m² | - |
| 1778333222 | 16.11° C | 60% | 1019.6 hPa | 0 mm | - | 329 W/m² | - |
| 1778333103 | 16.11° C | 59% | 1019.6 hPa | 0 mm | - | 297 W/m² | - |
| 1778332983 | 16.11° C | 61% | 1019.6 hPa | 0 mm | - | 281 W/m² | - |
| 1778332863 | 16.11° C | 59% | 1019.6 hPa | 0 mm | - | 278 W/m² | - |
| 1778332742 | 16.11° C | 59% | 1019.7 hPa | 0 mm | - | 292 W/m² | - |
| 1778332621 | 16.11° C | 61% | 1019.7 hPa | 0 mm | - | 271 W/m² | - |
| 1778332503 | 16.11° C | 59% | 1019.7 hPa | 0 mm | - | 243 W/m² | - |
| 1778332381 | 16.11° C | 60% | 1019.7 hPa | 0 mm | - | 232 W/m² | - |
| 1778332260 | 15.56° C | 59% | 1019.8 hPa | 0 mm | - | 225 W/m² | - |
| 1778332141 | 15.56° C | 57% | 1019.9 hPa | 0 mm | - | 223 W/m² | - |
* Rain latest hour (hover to see other rain measurements)
** Current wind speed in m/s (hover to see current wind gust speed)